Simultaneous Nadir Overpasses (SNOs) Predictions

Prediction of SNOs between GOES-15 and TERRA Satellite Orbit:

Table of predicted SNOs for the next 14.0 days since TLE Epoch: 10/18/2014
Index Date Time (GOES-15) GOES-15 Lat,Lon TERRA Lat,Lon Distance(km) Time Diff (sec)
1 10/18/2014 19:28:13 -0.32,-135.34 -0.57,-134.24 125.80 80
2 10/19/2014 07:49:36 0.31,-135.29 -0.60,-139.42 469.70 80
3 10/20/2014 19:16:00 -0.32,-135.32 -1.16,-131.27 459.90 80
4 10/21/2014 07:37:24 0.31,-135.27 0.05,-136.46 135.77 80
5 10/23/2014 07:22:31 0.31,-135.24 0.66,-133.50 197.59 80
6 10/23/2014 19:43:46 -0.30,-135.27 0.44,-138.65 384.84 80
7 10/25/2014 19:31:33 -0.30,-135.24 -0.18,-135.69 52.25 80
8 10/27/2014 19:22:00 -0.30,-135.19 -0.82,-132.73 279.69 80
9 10/28/2014 07:43:23 0.28,-135.14 -0.33,-137.91 315.76 80
10 10/30/2014 07:28:30 0.28,-135.08 0.33,-134.96 15.37 80




NCC Satellite Simultaneous Nadir Overpasses (SNOs) Prediction Service
